Voltar ao catálogo

STARLINK-3950

AtivoComunicaçõesVLEO
NORAD 53264·PAYLOAD·🇺🇸 United States

Lançado Jul 24, 2022 de Cape Canaveral Space Force Station

Loading…

Próximas Passagens (próximas 24 horas)

TLE

AtualizadoSource: CelesTrak SupGP

Época: Sep 15, 2026, 01:38 UTC

1 53264C 22086Y   26258.06854167 -.00029264  00000+0 -86485-3 0  2584
2 53264  53.1591  51.4467 0001186  84.4177 342.3689 15.34396739    16

Acompanhe STARLINK-3950 em tempo real com AllMySat

Download on the App Store